TimeEST,TemperatureF,Dew PointF,Humidity,Sea Level PressureIn,VisibilityMPH,Wind Direction,Wind SpeedMPH,Gust SpeedMPH,PrecipitationIn,Events,Conditions,WindDirDegrees,DateUTC
12:52 AM,42.8,28.4,57,30.07,10.0,ENE,10.4,-,N/A,,Overcast,70,2013-02-26 05:52:00
12:54 AM,42.1,28.0,58,30.07,10.0,ENE,10.4,-,N/A,,Overcast,60,2013-02-26 05:54:00
1:54 AM,39.0,33.1,79,30.06,6.0,ENE,8.1,-,0.00,,Haze,70,2013-02-26 06:54:00
2:54 AM,39.9,33.1,77,30.01,10.0,ENE,6.9,-,N/A,,Overcast,60,2013-02-26 07:54:00
3:54 AM,41.0,32.0,70,29.99,10.0,ENE,6.9,-,N/A,,Overcast,70,2013-02-26 08:54:00
4:54 AM,39.9,35.1,83,29.96,5.0,East,9.2,-,0.02,Rain,Rain,80,2013-02-26 09:54:00
5:13 AM,39.2,35.6,87,29.94,5.0,ENE,10.4,-,0.03,Rain,Light Rain,60,2013-02-26 10:13:00
5:54 AM,39.9,37.0,89,29.94,7.0,ENE,9.2,-,0.04,Rain,Light Rain,70,2013-02-26 10:54:00
7:19 AM,41.0,39.2,93,29.91,4.0,ENE,11.5,-,0.00,Rain,Light Rain,70,2013-02-26 12:19:00
7:31 AM,41.0,39.2,93,29.89,4.0,ENE,12.7,-,0.01,Rain,Light Rain,70,2013-02-26 12:31:00
7:44 AM,42.8,41.0,93,29.90,3.0,ENE,9.2,17.3,0.02,Rain,Light Rain,70,2013-02-26 12:44:00
7:54 AM,43.0,41.0,93,29.89,4.0,ENE,11.5,-,0.02,Rain,Light Rain,70,2013-02-26 12:54:00
8:45 AM,44.6,44.6,100,29.88,3.0,ENE,8.1,17.3,0.05,Rain,Light Rain,70,2013-02-26 13:45:00
8:54 AM,46.0,44.1,93,29.88,2.5,ENE,9.2,-,0.07,Rain,Light Rain,70,2013-02-26 13:54:00
9:13 AM,46.4,44.6,93,29.86,4.0,ENE,10.4,-,0.02,Rain,Light Rain,70,2013-02-26 14:13:00
9:37 AM,48.2,46.4,93,29.85,2.0,ENE,10.4,-,0.08,Rain,Rain,70,2013-02-26 14:37:00
9:51 AM,48.2,46.4,93,29.85,1.5,ENE,9.2,-,0.14,Rain,Heavy Rain,70,2013-02-26 14:51:00
9:54 AM,48.0,46.9,96,29.84,1.8,East,9.2,-,0.15,Rain,Rain,80,2013-02-26 14:54:00
10:07 AM,48.2,46.4,93,29.84,2.0,East,11.5,-,0.04,Rain,Rain,80,2013-02-26 15:07:00
10:16 AM,48.2,48.2,100,29.84,1.5,East,9.2,-,0.10,Rain,Heavy Rain,90,2013-02-26 15:16:00
10:34 AM,48.2,48.2,100,29.82,2.0,East,9.2,-,0.18,Rain,Rain,80,2013-02-26 15:34:00
10:54 AM,50.0,48.9,96,29.81,2.5,East,10.4,-,0.24,Rain,Rain,80,2013-02-26 15:54:00
11:25 AM,51.8,51.8,100,29.80,1.5,East,8.1,-,0.14,Rain,Heavy Rain,80,2013-02-26 16:25:00
11:37 AM,51.8,51.8,100,29.79,1.0,NE,4.6,-,0.26,Rain,Heavy Rain,40,2013-02-26 16:37:00
11:43 AM,51.8,51.8,100,29.78,1.8,Calm,Calm,-,0.29,Rain,Rain,0,2013-02-26 16:43:00
11:52 AM,53.6,51.8,94,29.77,2.0,ENE,6.9,-,0.32,Rain,Rain,60,2013-02-26 16:52:00
11:54 AM,53.1,52.0,96,29.78,2.0,ENE,6.9,-,0.33,Rain,Rain,70,2013-02-26 16:54:00
12:05 PM,53.6,51.8,94,29.75,1.5,ENE,6.9,-,0.06,Rain,Heavy Rain,70,2013-02-26 17:05:00
12:13 PM,53.6,51.8,94,29.74,2.0,ENE,6.9,-,0.07,Rain,Light Rain,60,2013-02-26 17:13:00
12:21 PM,53.6,53.6,100,29.73,4.0,East,6.9,-,0.08,Rain,Rain,80,2013-02-26 17:21:00
12:50 PM,55.4,53.6,94,29.70,3.0,NNE,9.2,-,0.12,Rain,Rain,20,2013-02-26 17:50:00
12:54 PM,55.9,55.0,97,29.70,1.8,NE,9.2,-,0.16,Rain,Heavy Rain,50,2013-02-26 17:54:00
1:01 PM,55.4,55.4,100,29.69,1.5,ENE,9.2,-,0.02,Rain,Rain,60,2013-02-26 18:01:00
1:04 PM,55.4,55.4,100,29.69,2.0,East,6.9,-,0.02,Rain,Light Rain,80,2013-02-26 18:04:00
1:14 PM,57.2,55.4,94,29.68,1.8,East,6.9,-,0.07,Rain,Light Rain,90,2013-02-26 18:14:00
1:18 PM,57.2,55.4,94,29.68,3.0,East,8.1,-,0.07,Rain,Light Rain,100,2013-02-26 18:18:00
1:25 PM,57.2,57.2,100,29.67,1.8,East,9.2,-,0.09,Rain,Rain,100,2013-02-26 18:25:00
1:32 PM,57.2,57.2,100,29.66,2.0,East,9.2,-,0.10,Rain,Light Rain,100,2013-02-26 18:32:00
1:40 PM,59.0,57.2,94,29.65,5.0,ESE,5.8,-,0.10,Rain,Light Rain,120,2013-02-26 18:40:00
1:54 PM,60.1,59.0,96,29.63,10.0,East,10.4,-,0.10,,Overcast,100,2013-02-26 18:54:00
2:26 PM,62.6,60.8,94,29.61,10.0,ESE,11.5,-,N/A,,Overcast,110,2013-02-26 19:26:00
2:54 PM,63.0,62.1,97,29.58,10.0,ESE,10.4,-,N/A,,Overcast,110,2013-02-26 19:54:00
3:54 PM,66.9,64.9,93,29.56,10.0,SSE,9.2,-,N/A,,Overcast,150,2013-02-26 20:54:00
4:54 PM,69.1,64.9,87,29.55,10.0,SSE,5.8,-,N/A,,Mostly Cloudy,160,2013-02-26 21:54:00
5:06 PM,69.8,64.4,83,29.55,9.0,Variable,5.8,-,N/A,,Scattered Clouds,0,2013-02-26 22:06:00
5:54 PM,66.9,64.0,90,29.55,7.0,SSW,4.6,-,N/A,,Partly Cloudy,200,2013-02-26 22:54:00
6:54 PM,64.0,63.0,96,29.56,6.0,Calm,Calm,-,N/A,,Clear,0,2013-02-26 23:54:00
7:13 PM,62.6,62.6,100,29.56,2.5,South,5.8,-,N/A,,Scattered Clouds,180,2013-02-27 00:13:00
7:20 PM,62.6,62.6,100,29.56,7.0,South,5.8,-,N/A,,Mostly Cloudy,190,2013-02-27 00:20:00
7:54 PM,64.0,60.1,87,29.60,10.0,West,12.7,20.7,N/A,,Mostly Cloudy,280,2013-02-27 00:54:00
7:59 PM,62.6,59.0,88,29.60,10.0,West,10.4,20.7,N/A,,Mostly Cloudy,280,2013-02-27 00:59:00
8:54 PM,57.9,55.9,93,29.63,10.0,WNW,6.9,-,N/A,,Clear,290,2013-02-27 01:54:00
9:23 PM,57.2,53.6,88,29.65,10.0,West,11.5,-,N/A,,Mostly Cloudy,280,2013-02-27 02:23:00
9:54 PM,57.0,53.1,87,29.66,10.0,West,9.2,-,N/A,,Mostly Cloudy,280,2013-02-27 02:54:00
10:16 PM,53.6,51.8,94,29.67,10.0,WNW,5.8,-,N/A,,Partly Cloudy,290,2013-02-27 03:16:00
10:54 PM,53.1,50.0,89,29.67,10.0,West,5.8,-,N/A,,Partly Cloudy,270,2013-02-27 03:54:00
11:54 PM,48.9,48.0,97,29.67,10.0,West,5.8,-,N/A,,Clear,260,2013-02-27 04:54:00